Regional Weather Roundup
Issued by NWS

Home | Current Version | Previous Version | Text Only | Print | Product List | Glossary Off
Versions: 1 2 3 4 5 6 7 8 9 10 11 12 13 14 15 16 17 18 19 20 21 22 23 24 25 26 27 28 29 30 31 32 33 34 35 36 37 38 39 40 41 42 43 44 45 46 47 48 49 50

000
ASUS43 KDTX 200610
RWRMI
MICHIGAN HOURLY REGIONAL WEATHER ROUNDUP
NATIONAL WEATHER SERVICE DETROIT/PONTIAC MI
200 AM EDT SAT SEP 20 2014

NOTE: "FAIR" INDICATES FEW OR NO CLOUDS BELOW 12,000 FEET WITH NO
SIGNIFICANT WEATHER AND/OR OBSTRUCTION TO VISIBILITY.

MIZ047>049-052>055-059>063-066>070-074>076-081>083-200700-
SOUTHEAST LOWER MICHIGAN

CITY           SKY/WX    TMP DP  RH WIND       PRES   REMARKS
ADRIAN         PTCLDY    50  49  96 SW3       30.03F
6HR MIN TEMP:  50; 6HR MAX TEMP:  59;

ALMA           PTCLDY    55  49  79 S6        29.96S
ANN ARBOR      PTCLDY    45  43  93 W3        30.02S FOG
BAD AXE        CLEAR     55  52  91 S12       29.97S
6HR MIN TEMP:  54; 6HR MAX TEMP:  56;

CARO           PTCLDY    56  51  83 S9        29.95F
DETROIT CITY   PTCLDY    57  52  83 CALM      30.02F
6HR MIN TEMP:  56; 6HR MAX TEMP:  62;

DETROIT        MOCLDY    53  51  93 S3        30.03S
6HR MIN TEMP:  53; 6HR MAX TEMP:  59;

FLINT          CLEAR     59  51  75 S7        29.98F
6HR MIN TEMP:  53; 6HR MAX TEMP:  59;

GROSSE ILE     PTCLDY    63  55  77 S8        30.02R
HILLSDALE      CLEAR     53  49  87 S5        30.01F
6HR MIN TEMP:  51; 6HR MAX TEMP:  59;

HOWELL         CLEAR     54  51  89 S8        29.99F
6HR MIN TEMP:  52; 6HR MAX TEMP:  57;


CITY           SKY/WX    TMP DP  RH WIND       PRES   REMARKS
JACKSON        CLEAR     54  48  80 S7        30.00F
6HR MIN TEMP:  53; 6HR MAX TEMP:  60;

LAMBERTVILLE   PTCLDY    54  50  87 S3        30.03S
LANSING        PTCLDY    56  48  74 S9        29.97F
6HR MIN TEMP:  56; 6HR MAX TEMP:  62;

LAPEER         FAIR      55  52  90 S8        29.99F
MASON          PTCLDY    54  50  86 S6        29.99S
MONROE         PTCLDY    52  50  93 CALM      30.01S
MT. CLEMENS    PTCLDY    54  54 100 S6        30.01R
PONTIAC        PTCLDY    56  52  86 S6        30.01F
6HR MIN TEMP:  54; 6HR MAX TEMP:  57;

PORT HOPE        N/A     56  51  84 VRB6      29.94F
6HR MIN TEMP:  56; 6HR MAX TEMP:  59;

PORT HURON     PTCLDY    46  46 100 CALM      30.02S FOG
TRI CITIES     MOCLDY    56  51  84 S7        29.97S
6HR MIN TEMP:  56; 6HR MAX TEMP:  61;

TROY           PTCLDY    54  51  87 CALM      30.04S
SAGINAW HB     PTCLDY    55  50  82 S8        29.96S
$$
MIZ043>046-050>051-056>058-064>065-071>073-077>080-200700-
SOUTHWEST LOWER MICHIGAN

CITY           SKY/WX    TMP DP  RH WIND       PRES   REMARKS
BATTLE CREEK   PTCLDY    58  46  64 S12       29.98F
6HR MIN TEMP:  57; 6HR MAX TEMP:  62;

BENTON HARBOR  CLEAR     59  48  67 S8        29.95F
6HR MIN TEMP:  57; 6HR MAX TEMP:  63;

BIG RAPIDS     CLOUDY    60  51  70 S10       29.92S
6HR MIN TEMP:  59; 6HR MAX TEMP:  61;

COLDWATER      CLEAR     57  48  73 S7        29.99F
6HR MIN TEMP:  55; 6HR MAX TEMP:  61;

FREMONT        FAIR      59  46  61 S5        29.92S
6HR MIN TEMP:  59; 6HR MAX TEMP:  63;

HOLLAND        CLEAR     60  49  66 S9        29.94F
6HR MIN TEMP:  59; 6HR MAX TEMP:  63;

GRAND RAPIDS   CLEAR     59  48  67 S10       29.95F
6HR MIN TEMP:  57; 6HR MAX TEMP:  63;

IONIA          FAIR      58  48  67 S7        29.95F
KALAMAZOO      CLEAR     58  48  69 S12       29.97F
6HR MIN TEMP:  57; 6HR MAX TEMP:  64;

LUDINGTON      CLOUDY    67  54  61 S21G33    29.87F
6HR MIN TEMP:  64; 6HR MAX TEMP:  69;

MARSHALL       PTCLDY    56  46  69 S7        29.98F
MOUNT PLEASANT PTCLDY    54  49  82 SE3       29.94F
6HR MIN TEMP:  54; 6HR MAX TEMP:  61;

MUSKEGON       CLEAR     64  52  64 S15G25    29.91F
6HR MIN TEMP:  64; 6HR MAX TEMP:  67;

SOUTH HAVEN    CLEAR     60  50  68 S7        29.95S
$$
MIZ016>042-200700-
NORTHERN LOWER MICHIGAN

CITY           SKY/WX    TMP DP  RH WIND       PRES   REMARKS
ALPENA         CLOUDY    60  48  64 S15       29.86F THUNDER
6HR MIN TEMP:  55; 6HR MAX TEMP:  60; 6HR PCP: TRACE;

BEAVER ISLAND  HVY RAIN  65  55  68 SW29G40   29.77F
6HR MIN TEMP:  64; 6HR MAX TEMP:  67;

BELLAIRE       CLOUDY    65  48  52 S8        29.85F
6HR MIN TEMP:  64; 6HR MAX TEMP:  65;

CADILLAC       PTCLDY    59  49  68 S14G20    29.89S
CHARLEVOIX     MOCLDY    65  50  58 S14G24    29.82F
6HR MIN TEMP:  63; 6HR MAX TEMP:  65;

FRANKFORT      CLOUDY    68  49  50 S21G32    29.84F
GAYLORD        CLOUDY    60  48  64 SW14G24   29.86F
6HR MIN TEMP:  57; 6HR MAX TEMP:  60;

GRAYLING       CLOUDY    60  48  64 SW6G16    29.89F
6HR MIN TEMP:  59; 6HR MAX TEMP:  60;

HARBOR SPRINGS CLOUDY    65  50  56 SW9       29.82F
HOUGHTON LAKE  CLOUDY    58  49  72 S8        29.90F
6HR MIN TEMP:  57; 6HR MAX TEMP:  58;

MANISTEE       CLOUDY    66  46  48 S13G20    29.87F
OSCODA         PTCLDY    58  50  74 SW18G25   29.90F
PELLSTON       CLOUDY    65  49  56 SW17G28   29.79F
6HR MIN TEMP:  60; 6HR MAX TEMP:  65; 6HR PCP:  0.12;

ROGERS CITY    CLOUDY    61  53  75 S9        29.84F
TRAVERSE CITY  MOCLDY    65  47  52 S8        29.83F
6HR MIN TEMP:  64; 6HR MAX TEMP:  66;

$$
MIZ007>008-015-200700-
EASTERN UPPER MICHIGAN

CITY           SKY/WX    TMP DP  RH WIND       PRES   REMARKS
KINROSS        CLOUDY    61  54  77 SW7       29.78R
6HR MIN TEMP:  57; 6HR MAX TEMP:  63; 6HR PCP:  0.08;

MACKINAC ISLAN CLOUDY    64  51  62 S13G18    29.77F
6HR MIN TEMP:  60; 6HR MAX TEMP:  64; 6HR PCP:  0.03;

NEWBERRY       CLOUDY    61  52  72 SW17G31   29.74S
S. S. MARIE    HVY RAIN  56  54  93 E6        29.78S FOG
6HR MIN TEMP:  56; 6HR MAX TEMP:  60; 6HR PCP:  0.24;

MUNISING         N/A     65  52  62 S12G20    29.67F
6HR MIN TEMP:  63; 6HR MAX TEMP:  65;

$$
MIZ004>006-011>014-085-200700-
CENTRAL UPPER MICHIGAN

CITY           SKY/WX    TMP DP  RH WIND       PRES   REMARKS
MANISTIQUE     CLOUDY    60  55  84 SW14G22   29.73F
ESCANABA       CLOUDY    61  54  77 S14G20    29.72F
6HR MIN TEMP:  61; 6HR MAX TEMP:  63;

MENOMINEE      CLOUDY    63  54  72 SW12G18   29.71F
6HR MIN TEMP:  63; 6HR MAX TEMP:  64;

SAWYER-GWINN   CLOUDY    60  52  74 S14       29.68F
$$
MIZ001>003-009>011-084-200700-
WESTERN UPPER MICHIGAN

CITY           SKY/WX    TMP DP  RH WIND       PRES   REMARKS
IRON MOUNTAIN  CLOUDY    64  53  67 S7        29.69F
6HR MIN TEMP:  64; 6HR MAX TEMP:  66; 6HR PCP: TRACE;

HOUGHTON       CLOUDY    62  57  83 W7        29.61F
6HR MIN TEMP:  61; 6HR MAX TEMP:  64; 6HR PCP:  0.01;

COPPER HARBOR    N/A     55  50  83 CALM      29.60F
6HR MIN TEMP:  53; 6HR MAX TEMP:  65; 6HR PCP:  0.07;

IRONWOOD       MOCLDY    66  61  82 SW10      29.62R
6HR MIN TEMP:  64; 6HR MAX TEMP:  66;

$$

ABBREVIATIONS USED IN REMARKS
   TC - TEMPERATURE IN CELSIUS
  WCI - WIND CHILL INDEX
   HX - HEAT INDEX
  VSB - VISIBILITY



USA.gov is the U.S. government's official web portal to all federal, state and local government web resources and services.